Вернуться в каталог

FENGYUN 1C DEB

АктивенSSO
NORAD 31660·DEBRIS·🇨🇳 China

Запущен May 10, 1999 с Taiyuan Satellite Launch Center

Loading…

Ближайшие Пролёты (ближайшие 24 часа)

TLE

СвежийSource: Space-Track

Эпоха: Sep 14, 2026, 04:49 UTC

1 31660U 99025CBS 26257.20110835  .00000801  00000-0  32216-3 0  9999
2 31660  98.5145 256.4002 0102434  92.8269 268.4641 14.27874449118460

Отслеживайте FENGYUN 1C DEB в реальном времени с AllMySat

Download on the App Store